カタログに戻る

SL-14 DEB

運用中PO
NORAD 25454·DEBRIS·🇷🇺 Russia

打ち上げ Aug 18, 1987 から Plesetsk Cosmodrome

Loading…

次のパス (今後24時間)

TLE

最新Source: Space-Track

元期: Sep 14, 2026, 04:59 UTC

1 25454U 87068CC  26257.20794387  .00076455  00000-0  57473-2 0  9996
2 25454  82.1367 342.2910 0017855 275.4952  84.4235 15.02080316655020

AllMySatでSL-14 DEBをリアルタイム追跡

Download on the App Store